RH
61 62 62 60 58 57 55 51 54 60 58 58 63 65 63 61 62 63 64 63 62 63 63 65 67 66 66 67 67 68 67 68 68 64 59 59 65 68 65 62 61 58
58 58 58 57 55 55 55 53 50 50 51 55 62 64 64 63 63 63 65 65 63 61 62 63 65 66 66 67 69 69 68 67 67 66 61 55 59 66 66 63 60 53
54 54 54 53 52 52 53 52 48 45 45 49 54 56 58 60 61 61 61 63 62 62 63 64 65 67 68 68 70 69 68 67 65 66 63 56 54 60 64 65 58 49
54 54 53 53 54 55 56 56 53 49 46 45 45 47 51 54 56 58 59 61 63 63 63 64 65 67 68 69 70 69 69 70 69 67 66 62 55 54 60 63 57 48
56 57 57 57 58 59 61 60 58 56 53 50 50 51 53 54 55 56 57 60 63 65 65 65 65 66 67 68 69 69 70 71 73 72 69 66 58 53 57 60 57 50
58 59 60 60 61 62 64 63 62 61 59 58 57 57 58 57 58 58 58 60 60 61 63 64 63 63 64 67 68 68 70 71 73 74 73 69 60 53 55 59 59 53
58 60 61 62 63 64 65 65 64 63 62 62 62 62 62 60 60 61 61 61 57 55 60 63 63 62 62 66 67 67 70 72 72 73 75 73 64 54 55 59 61 55
59 60 61 63 63 64 65 65 65 65 65 65 65 64 65 63 63 65 64 63 61 59 62 64 64 64 63 65 66 68 71 73 73 72 73 75 68 55 54 61 64 57
59 60 61 63 63 63 65 64 65 67 68 68 68 67 67 65 65 66 66 68 68 67 66 65 65 66 66 66 67 70 72 71 73 71 70 73 68 58 55 60 64 57
61 62 62 62 63 63 65 67 68 70 71 71 70 69 69 70 71 71 72 73 73 73 71 70 69 68 68 68 68 71 71 70 72 72 72 72 67 62 59 56 58 58
64 65 65 64 66 69 70 72 73 73 73 74 74 76 78 81 83 82 82 81 80 80 79 77 77 76 75 72 70 72 72 71 73 73 75 73 69 67 61 55 58 61
68 69 71 72 74 75 75 76 76 77 78 80 83 85 84 84 84 84 85 86 86 85 84 83 83 82 82 79 76 75 74 75 76 76 76 75 73 71 63 59 64 64
73 75 77 78 78 78 78 78 79 80 80 80 80 77 72 71 71 72 76 79 81 82 84 84 84 83 82 80 79 78 78 79 79 79 77 74 74 72 64 63 66 65
79 80 80 77 75 74 73 72 71 69 66 62 59 56 56 57 59 62 64 66 69 72 74 78 81 81 79 79 81 81 81 82 81 81 78 75 75 72 65 62 63 64
77 74 70 65 63 62 60 58 56 53 51 48 47 47 50 53 56 58 59 60 62 63 65 69 71 73 76 81 85 85 84 84 83 81 79 76 75 71 66 63 61 63
62 58 55 55 55 54 52 51 48 47 46 45 45 46 48 51 52 53 54 55 57 58 60 60 61 67 73 79 85 88 87 86 84 82 80 77 75 72 70 67 63 65
51 51 52 53 52 50 48 46 45 44 43 42 42 43 45 46 47 49 52 53 55 57 58 59 62 67 68 69 77 85 88 89 86 83 80 77 77 73 69 67 64 67
51 53 52 49 47 45 44 43 42 42 42 42 43 43 44 44 47 50 53 53 53 55 59 63 69 72 67 64 71 80 85 87 86 85 81 78 77 71 65 64 65 68
52 50 47 44 44 43 43 43 43 44 46 47 47 48 47 48 51 53 54 54 54 56 59 64 70 75 75 71 72 76 79 81 85 85 80 78 76 68 61 63 63 64
47 45 43 43 45 45 45 46 48 50 52 52 52 52 52 52 54 55 55 56 56 56 58 61 65 72 79 80 77 76 77 79 83 84 80 77 73 66 66 69 65 61
44 44 45 46 47 48 49 52 53 54 55 55 56 56 56 57 56 56 57 57 57 57 57 60 62 65 73 81 83 81 81 81 82 82 81 76 71 72 76 74 66 62
44 45 47 49 50 52 54 56 57 57 57 56 56 55 55 55 55 56 57 57 57 58 57 59 62 63 66 78 88 89 86 85 84 83 81 78 76 80 80 69 62 64
46 47 51 53 54 55 56 57 57 57 56 55 55 54 54 55 55 56 58 59 59 60 61 61 63 65 66 74 89 96 92 88 88 85 82 82 83 83 79 65 59 65
49 50 52 53 54 56 56 57 57 56 55 55 54 55 56 57 59 59 59 61 62 65 69 67 66 71 73 73 85 97 98 94 92 89 86 86 84 83 79 67 59 64
51 51 52 52 53 56 56 57 56 55 55 55 55 58 60 61 63 62 62 63 64 68 73 70 70 74 76 76 82 92 99 99 94 91 89 86 83 81 75 64 60 65
52 52 53 54 55 56 56 56 56 55 56 56 58 60 62 63 64 64 64 63 62 68 74 74 75 77 77 81 84 88 95 100 96 92 90 84 81 79 69 62 66 67
Wind_Speed
21 21 21 21 21 21 21 21 21 22 22 21 21 21 21 19 17 16 15 15 16 16 16 17 16 15 15 14 13 13 13 12 12 11 10 10 10 10 10 10 8 8
20 20 20 21 21 21 21 21 21 22 22 21 22 22 22 21 19 18 17 17 16 16 16 16 16 15 15 15 13 13 13 13 13 12 11 11 11 11 11 10 9 9
19 19 19 20 21 20 20 20 20 21 21 22 23 23 23 23 21 20 19 18 18 17 16 16 17 17 16 16 15 14 14 14 14 13 13 13 13 12 12 11 9 9
17 18 18 18 19 19 19 19 20 20 20 21 22 22 22 22 21 21 20 19 18 18 18 18 18 18 18 18 17 17 17 17 15 13 14 15 14 13 12 11 10 10
17 17 18 18 18 18 19 19 20 19 19 20 20 20 20 21 21 20 20 19 19 19 19 20 19 18 19 19 19 19 19 19 18 16 16 16 15 13 12 11 11 10
19 18 18 18 18 18 19 20 20 19 19 19 20 20 20 21 21 20 19 19 19 18 19 21 19 18 19 20 20 21 20 20 20 18 18 18 16 14 12 11 12 11
19 19 18 18 18 18 19 20 20 20 19 20 20 21 21 21 21 20 19 19 19 19 19 21 20 19 19 19 21 22 21 20 21 20 20 20 18 15 13 13 13 11
19 18 18 18 18 19 19 19 20 20 20 20 21 22 21 21 21 21 20 19 19 20 20 20 21 20 20 20 21 22 21 21 22 21 21 21 20 17 14 13 13 11
19 18 18 18 19 19 19 19 20 20 21 21 22 23 22 22 22 21 21 20 20 20 20 19 20 20 19 20 22 22 21 22 23 22 22 22 21 18 14 13 13 11
19 18 18 19 19 19 19 20 21 21 22 22 22 23 22 22 22 21 21 20 21 21 21 20 21 21 19 20 22 22 22 23 23 23 23 23 21 18 14 13 13 11
19 18 18 19 19 19 19 20 20 21 21 21 21 21 20 19 19 18 18 19 20 20 20 21 22 22 22 22 22 22 23 24 24 24 24 22 20 17 13 12 11 10
18 17 17 17 17 17 17 18 18 18 18 17 16 16 16 15 15 15 15 16 17 17 18 19 20 21 22 22 23 23 24 24 24 24 23 21 19 16 12 10 9 11
15 14 14 14 13 13 12 12 12 12 12 12 12 12 13 13 14 14 14 15 15 16 16 17 18 18 19 20 21 22 23 24 23 22 21 19 18 15 12 10 9 11
10 9 8 7 7 7 8 9 9 10 11 11 12 12 13 14 15 15 15 15 15 16 16 16 17 17 17 18 19 20 21 21 20 20 19 18 17 15 13 9 10 12
2 4 6 7 8 9 10 10 11 11 11 12 12 13 13 13 14 15 15 15 15 15 16 16 16 17 17 18 19 19 19 19 18 18 17 17 16 14 12 9 10 12
10 10 10 11 11 11 11 10 10 10 11 12 13 13 13 14 14 14 15 16 16 16 16 16 16 17 18 18 17 17 17 17 16 16 15 15 16 14 11 9 10 10
13 12 11 11 11 11 10 10 10 11 12 12 13 13 14 14 15 15 16 16 16 16 16 16 16 17 17 16 15 14 14 14 14 14 13 14 16 13 10 9 10 9
13 12 12 12 11 11 11 11 11 12 13 13 14 15 15 15 16 17 17 18 18 17 17 17 17 17 16 14 13 13 12 11 11 11 11 13 14 11 10 10 10 9
13 13 14 13 12 12 12 12 13 14 14 15 16 16 15 16 17 19 20 20 21 21 21 21 20 20 17 13 11 11 11 9 9 9 10 12 12 10 11 11 9 10
15 15 14 13 13 12 13 14 15 16 16 16 16 17 17 18 19 20 21 22 22 23 23 23 24 23 19 13 9 9 9 9 7 7 9 11 11 10 11 10 9 11
15 14 14 14 13 13 14 16 16 17 18 18 18 18 19 20 20 21 22 22 23 22 23 24 24 25 23 16 10 7 7 7 6 5 8 9 10 10 9 7 7 11
14 14 15 15 15 15 17 18 18 18 18 18 18 18 19 20 20 21 22 22 22 22 22 23 24 24 25 21 13 7 6 6 5 5 7 8 9 8 7 6 7 10
14 15 16 16 16 18 18 19 18 19 19 19 19 20 20 21 21 21 22 22 22 22 22 22 23 24 25 24 18 10 6 5 6 5 6 8 7 6 6 7 7 8
15 16 17 17 18 18 18 18 18 19 19 20 20 20 21 21 22 22 22 22 22 22 22 22 22 24 25 25 23 16 7 4 4 6 6 6 5 6 6 7 6 7
16 17 17 18 18 18 17 18 18 18 19 20 20 21 21 21 22 23 24 24 22 22 23 24 24 26 26 25 24 20 12 5 2 4 5 4 4 5 6 7 6 7
16 17 18 18 18 17 17 18 18 18 20 21 21 21 21 22 23 24 24 24 23 22 24 26 27 28 28 27 25 22 17 8 2 2 3 3 4 5 8 10 9 10
Wind_Direction
258 262 266 269 273 276 279 280 279 281 282 280 281 285 293 298 299 296 292 291 289 283 281 280 279 278 273 269 269 279 285 278 280 293 292 282 281 280 274 275 276 268
260 263 266 269 273 277 280 282 283 284 283 281 281 285 291 294 295 293 290 291 291 289 288 284 279 276 271 268 266 269 279 280 280 283 284 281 279 277 273 274 274 264
262 265 268 271 275 281 285 288 287 286 285 285 285 288 291 293 294 292 290 291 292 293 292 288 281 276 272 271 267 264 271 278 279 277 274 275 278 280 277 273 271 262
265 268 272 276 280 284 287 288 288 290 290 291 293 295 297 297 296 294 292 293 295 296 295 291 285 278 275 273 268 265 268 274 277 274 269 270 274 281 279 269 265 262
269 272 275 279 283 286 287 288 290 294 295 296 300 302 301 301 300 298 299 298 298 299 299 294 288 281 276 272 268 266 269 274 276 273 270 270 271 275 274 262 259 261
272 274 278 282 285 286 287 289 292 296 298 302 305 304 303 304 303 304 304 302 300 298 296 291 287 285 280 273 268 267 270 274 276 273 269 268 268 269 265 255 255 257
275 277 280 283 286 287 287 290 294 297 301 305 306 305 306 306 305 305 304 301 299 296 295 292 288 288 285 278 270 268 269 272 274 272 267 264 261 260 256 250 251 251
279 280 282 284 286 287 288 291 295 300 304 306 307 309 310 308 307 308 306 303 301 300 299 296 291 289 288 282 274 271 271 272 271 269 267 261 254 253 253 248 247 244
280 281 283 283 286 288 291 295 299 303 305 306 309 312 312 312 311 310 308 306 304 303 303 300 297 293 292 288 281 274 272 274 272 268 266 260 252 252 254 250 243 234
280 282 283 284 288 292 295 300 303 304 306 309 312 315 316 317 316 313 310 306 303 302 302 302 302 299 298 296 289 281 275 275 273 269 265 259 252 250 251 250 242 224
282 284 286 289 293 298 301 305 308 310 312 315 317 319 320 321 320 318 314 308 305 305 303 303 304 302 300 297 294 289 282 277 275 271 265 255 249 249 248 247 237 217
286 289 292 296 300 305 309 313 317 318 319 322 324 325 328 330 331 329 324 318 315 314 312 310 309 307 303 300 297 294 288 282 278 274 267 253 246 247 241 234 225 213
291 294 298 305 311 318 325 330 334 337 340 345 349 351 353 353 351 347 342 338 333 330 326 323 320 316 312 309 305 300 294 288 282 278 269 254 244 239 229 226 226 217
297 305 316 336 352 6 16 18 19 22 22 20 18 14 10 4 359 354 349 345 344 342 340 335 331 328 324 321 316 310 304 296 289 282 269 252 240 230 224 231 231 221
0 47 59 60 60 58 55 50 45 40 33 26 21 15 9 1 357 353 350 348 348 349 350 346 341 335 332 329 324 317 311 304 295 285 268 249 237 223 221 236 231 218
93 89 84 76 70 65 58 51 44 36 28 23 18 12 6 1 357 354 351 350 350 351 352 351 349 346 343 338 330 321 314 306 297 287 269 248 232 220 223 233 216 202
93 88 82 75 69 63 56 49 41 34 27 20 14 10 7 3 0 360 359 356 355 355 355 353 352 351 346 341 339 334 321 310 298 287 270 247 232 226 223 212 192 193
90 88 83 77 70 64 57 48 38 31 25 20 16 13 9 7 8 11 12 10 7 6 6 3 358 352 344 339 346 351 341 322 301 284 269 248 234 222 205 192 183 193
95 91 85 78 69 61 52 42 35 32 29 26 22 19 15 15 18 20 20 17 16 16 15 12 6 359 351 345 354 3 357 337 309 284 265 247 231 207 195 195 185 188
96 90 83 73 63 54 46 42 41 40 38 33 28 25 24 22 22 21 20 18 17 16 15 14 10 4 359 355 2 12 3 343 320 287 258 239 223 206 203 203 192 191
91 84 76 68 61 55 52 50 47 44 40 36 31 28 25 23 20 17 15 14 13 12 12 13 11 7 3 358 360 14 6 343 321 281 253 232 216 213 215 208 200 202
85 80 75 70 65 61 57 53 48 42 37 30 25 22 18 16 14 13 11 10 10 8 9 11 10 7 4 359 355 5 11 344 310 267 245 231 218 221 221 198 195 210
84 81 78 74 67 62 57 51 45 39 32 26 21 19 17 15 13 13 13 12 11 10 9 9 10 8 5 2 358 359 12 349 306 263 238 231 224 224 215 188 184 210
86 82 78 73 66 60 55 50 44 37 32 27 24 22 21 20 18 17 18 18 17 17 15 11 10 10 9 8 4 359 3 4 315 272 243 228 220 216 202 181 183 208
87 82 76 69 64 59 54 48 43 38 33 29 27 26 24 23 22 22 22 23 21 21 20 17 13 12 12 12 10 4 359 0 331 283 253 227 214 209 184 164 172 185
87 81 74 67 62 58 52 47 41 36 32 29 27 26 24 23 24 21 20 20 18 18 21 21 17 15 15 15 13 9 3 354 329 290 271 242 220 204 178 158 157 157